GW4641 Weather Reports


time (UTC)temp
C
wind
direction
speed
KPH
gust
KPH
rain 1hr
cm
rain 24hr
cm
rain mn
cm
humidity
%
barometer
mb
20260504192012 25 281 3.2 3.2 0.00 0.00 0.00 42 1014.8
20260504191509 25 186 4.8 9.7 0.00 0.00 0.00 43 1014.9
20260504191005 25 307 1.6 1.6 0.00 0.00 0.00 43 1014.8
20260504190501 25 303 3.2 3.2 0.00 0.00 0.00 46 1014.9
20260504185957 24 305 1.6 1.6 0.00 0.00 0.00 47 1015.0
20260504185455 23 88 0.0 1.6 0.00 0.00 0.00 47 1015.1
20260504184951 24 349 0.0 0.0 0.00 0.00 0.00 47 1015.2
20260504184447 23 327 1.6 3.2 0.00 0.00 0.00 47 1015.4
20260504183942 24 10 0.0 1.6 0.00 0.00 0.00 45 1015.5
20260504183440 25 308 1.6 3.2 0.00 0.00 0.00 45 1015.3
20260504182938 25 308 1.6 3.2 0.00 0.00 0.00 46 1015.7
20260504182434 25 313 0.0 0.0 0.00 0.00 0.00 46 1015.6
20260504181932 25 124 3.2 4.8 0.00 0.00 0.00 44 1015.5
20260504181429 25 166 0.0 0.0 0.00 0.00 0.00 45 1015.7
20260504180927 25 252 3.2 4.8 0.00 0.00 0.00 46 1015.8
20260504180426 25 199 3.2 3.2 0.00 0.00 0.00 46 1015.6
20260504175924 24 255 3.2 4.8 0.00 0.00 0.00 46 1015.7
20260504175420 25 173 3.2 3.2 0.00 0.00 0.00 46 1015.9
20260504174918 25 296 0.0 1.6 0.00 0.00 0.00 46 1016.0
20260504174415 24 61 0.0 1.6 0.00 0.00 0.00 48 1016.2
20260504173913 25 260 3.2 3.2 0.00 0.00 0.00 46 1016.2
20260504173409 23 262 3.2 3.2 0.00 0.00 0.00 46 1016.2
20260504172906 23 32 3.2 3.2 0.00 0.00 0.00 47 1016.5
20260504172402 23 271 3.2 3.2 0.00 0.00 0.00 46 1016.4
20260504171859 25 175 1.6 3.2 0.00 0.00 0.00 46 1016.6
20260504171356 25 281 1.6 1.6 0.00 0.00 0.00 46 1016.8
20260504170853 24 309 0.0 0.0 0.00 0.00 0.00 47 1016.5
20260504170349 24 149 1.6 1.6 0.00 0.00 0.00 47 1016.7
20260504160308 22 2 0.0 0.0 0.00 0.00 0.00 51 1017.3
20260504150734 20 182 1.6 3.2 0.00 0.00 0.00 59 1017.7
20260504150230 21 147 0.0 1.6 0.00 0.00 0.00 62 1017.6
20260504141159 17 332 0.0 0.0 0.00 0.00 0.00 81 1018.3
20260504140656 16 39 0.0 0.0 0.00 0.00 0.00 83 1018.4
20260504140152 15 24 0.0 0.0 0.00 0.00 0.00 87 1018.3
20260504130621 8 301 0.0 0.0 0.00 0.00 0.00 99 1018.3
20260504130117 8 301 0.0 0.0 0.00 0.00 0.00 99 1018.2
20260504110508 4 295 0.0 0.0 0.00 0.00 0.00 99 1018.0
20260504100430 4 295 0.0 0.0 0.00 0.00 0.00 98 1017.5
20260504081823 5 295 0.0 0.0 0.00 0.00 0.00 97 1017.3
20260504081320 5 295 0.0 0.0 0.00 0.00 0.00 97 1017.3
20260504080816 5 295 0.0 0.0 0.00 0.00 0.00 97 1017.4
20260504080313 5 295 0.0 0.0 0.00 0.00 0.00 97 1017.4
20260504070240 6 295 0.0 0.0 0.00 0.00 0.00 96 1017.5
20260504060201 7 295 0.0 0.0 0.00 0.00 0.00 95 1018.3
20260504050629 7 295 0.0 0.0 0.00 0.00 0.00 93 1017.8
20260504050126 7 295 0.0 0.0 0.00 0.00 0.00 93 1017.9
20260504045623 7 295 0.0 0.0 0.00 0.00 0.00 93 1018.0
20260504045118 7 295 0.0 0.0 0.00 0.00 0.00 93 1017.9
20260504044616 7 295 0.0 0.0 0.00 0.00 0.00 92 1017.9
20260504044112 7 295 0.0 0.0 0.00 0.00 0.00 92 1018.0
20260504043610 7 295 0.0 0.0 0.00 0.00 0.00 92 1018.1
20260504043107 7 295 0.0 0.0 0.00 0.00 0.00 92 1018.0
20260504042604 7 295 0.0 0.0 0.00 0.00 0.00 91 1018.1
20260504042100 8 295 0.0 0.0 0.00 0.00 0.00 91 1018.2
20260504041556 8 295 0.0 0.0 0.00 0.00 0.00 91 1018.2
20260504041053 7 295 0.0 0.0 0.00 0.00 0.00 90 1018.4
20260504040550 8 295 0.0 0.0 0.00 0.00 0.00 90 1018.4
20260504040047 8 295 0.0 0.0 0.00 0.00 0.00 90 1018.5
20260504035543 8 295 0.0 0.0 0.00 0.00 0.00 89 1018.3
20260504035040 8 295 0.0 0.0 0.00 0.00 0.00 89 1018.3
20260504034538 8 295 0.0 0.0 0.00 0.00 0.00 89 1018.3
20260504034034 8 295 0.0 0.0 0.00 0.00 0.00 88 1018.3
20260504033533 8 295 0.0 0.0 0.00 0.00 0.00 88 1018.3
20260504033030 8 295 0.0 0.0 0.00 0.00 0.00 87 1018.3
20260504032527 8 295 0.0 0.0 0.00 0.00 0.00 87 1018.5
20260504032023 8 295 0.0 0.0 0.00 0.00 0.00 86 1018.3
20260504031520 8 295 0.0 0.0 0.00 0.00 0.00 86 1018.5
20260504031016 9 295 0.0 0.0 0.00 0.00 0.00 86 1018.4
20260504030514 9 295 0.0 0.0 0.00 0.00 0.00 85 1018.4
20260504030010 9 295 0.0 0.0 0.00 0.00 0.00 85 1018.1
20260504025507 9 295 0.0 0.0 0.00 0.00 0.00 84 1018.1
20260504025004 10 295 0.0 0.0 0.00 0.00 0.00 84 1018.3
20260504024500 10 295 0.0 0.0 0.00 0.00 0.00 83 1018.3
20260504023958 10 295 0.0 0.0 0.00 0.00 0.00 82 1018.2
20260504023455 10 295 0.0 0.0 0.00 0.00 0.00 82 1018.4
20260504022950 10 295 0.0 0.0 0.00 0.00 0.00 81 1018.1
20260504022446 10 295 0.0 0.0 0.00 0.00 0.00 81 1018.0
20260504021943 10 295 0.0 0.0 0.00 0.00 0.00 80 1018.1
20260504021440 10 295 0.0 0.0 0.00 0.00 0.00 80 1018.2
20260504020937 10 295 0.0 0.0 0.00 0.00 0.00 79 1018.0
20260504020434 11 295 0.0 0.0 0.00 0.00 0.00 78 1018.1
20260504015931 11 295 0.0 0.0 0.00 0.00 0.00 77 1017.9
20260504015427 11 295 0.0 0.0 0.00 0.00 0.00 76 1017.8
20260504014923 11 295 0.0 0.0 0.00 0.00 0.00 76 1017.9
20260504014419 11 295 0.0 0.0 0.00 0.00 0.00 75 1017.6
20260504013916 11 295 0.0 0.0 0.00 0.00 0.00 75 1017.7
20260504013415 12 295 0.0 0.0 0.00 0.00 0.00 74 1017.5
20260504012910 12 295 0.0 0.0 0.00 0.00 0.00 73 1017.6
20260504012408 12 295 0.0 0.0 0.00 0.00 0.00 72 1017.7
20260504011905 12 295 0.0 0.0 0.00 0.00 0.00 72 1017.6
20260504011402 12 295 0.0 0.0 0.00 0.00 0.00 71 1017.4
20260504010858 12 295 0.0 0.0 0.00 0.00 0.00 70 1017.4
20260504010354 13 295 0.0 0.0 0.00 0.00 0.00 68 1017.3
20260504005850 13 295 0.0 0.0 0.00 0.00 0.00 66 1017.4
20260504005347 13 295 0.0 0.0 0.00 0.00 0.00 65 1017.3
20260504004845 14 295 0.0 0.0 0.00 0.00 0.00 65 1017.4
20260504004343 14 295 0.0 0.0 0.00 0.00 0.00 64 1017.3
20260504003839 15 295 0.0 0.0 0.00 0.00 0.00 63 1017.4
20260504003336 15 295 0.0 0.0 0.00 0.00 0.00 62 1017.2
20260504002832 15 295 0.0 0.0 0.00 0.00 0.00 60 1017.2
20260504002329 15 294 0.0 0.0 0.00 0.00 0.00 58 1017.3
20260504001827 16 295 0.0 0.0 0.00 0.00 0.00 56 1017.2
20260504001324 16 295 0.0 0.0 0.00 0.00 0.00 53 1017.1
20260504000821 17 295 0.0 0.0 0.00 0.00 0.00 51 1017.3
20260504000318 17 295 0.0 0.0 0.00 0.00 0.00 49 1017.2
20260503235815 17 299 0.0 0.0 0.00 0.00 0.00 49 1017.2
20260503235313 17 295 0.0 0.0 0.00 0.00 0.00 49 1017.2
20260503234810 17 296 0.0 0.0 0.00 0.00 0.00 48 1017.2
20260503234308 18 286 0.0 0.0 0.00 0.00 0.00 47 1017.0
20260503233806 18 278 1.6 1.6 0.00 0.00 0.00 46 1017.1
20260503233301 18 322 0.0 0.0 0.00 0.00 0.00 46 1017.0
20260503232758 18 290 1.6 1.6 0.00 0.00 0.00 45 1017.0
20260503232255 19 291 0.0 0.0 0.00 0.00 0.00 44 1017.0
20260503231753 19 297 0.0 1.6 0.00 0.00 0.00 45 1017.0
20260503231250 19 320 0.0 0.0 0.00 0.00 0.00 45 1016.9
20260503230745 19 284 1.6 1.6 0.00 0.00 0.00 44 1017.1
20260503230243 20 210 1.6 1.6 0.00 0.00 0.00 44 1017.1
20260503225741 20 262 1.6 1.6 0.00 0.00 0.00 45 1017.0
20260503225241 20 278 0.0 0.0 0.00 0.00 0.00 46 1017.0
20260503224738 20 349 0.0 1.6 0.00 0.00 0.00 46 1017.0
20260503224236 20 305 0.0 0.0 0.00 0.00 0.00 45 1017.2
20260503223733 20 310 0.0 1.6 0.00 0.00 0.00 44 1017.1
20260503223231 20 218 1.6 3.2 0.00 0.00 0.00 44 1017.1
20260503222727 20 312 0.0 0.0 0.00 0.00 0.00 44 1017.2
20260503222225 20 331 0.0 0.0 0.00 0.00 0.00 44 1017.2
20260503221723 20 316 0.0 0.0 0.00 0.00 0.00 44 1017.3
20260503221220 20 6 0.0 0.0 0.00 0.00 0.00 44 1017.2
20260503220717 20 258 1.6 1.6 0.00 0.00 0.00 44 1017.3
20260503220214 20 288 1.6 1.6 0.00 0.00 0.00 44 1017.3
20260503215710 20 241 1.6 1.6 0.00 0.00 0.00 45 1017.3
20260503215207 20 298 0.0 0.0 0.00 0.00 0.00 44 1017.4
20260503214706 20 291 0.0 1.6 0.00 0.00 0.00 44 1017.6
20260503214202 20 263 1.6 3.2 0.00 0.00 0.00 45 1017.5
20260503213701 20 306 1.6 1.6 0.00 0.00 0.00 44 1017.6
20260503213157 20 299 3.2 3.2 0.00 0.00 0.00 45 1017.7
20260503212654 20 244 1.6 1.6 0.00 0.00 0.00 45 1017.6
20260503212151 20 34 0.0 0.0 0.00 0.00 0.00 43 1017.4
20260503211649 20 359 3.2 3.2 0.00 0.00 0.00 45 1017.6
20260503211144 20 316 1.6 1.6 0.00 0.00 0.00 44 1017.8
20260503210641 20 252 0.0 1.6 0.00 0.00 0.00 44 1017.6
20260503210138 20 286 0.0 1.6 0.00 0.00 0.00 44 1017.8
20260503205633 20 348 0.0 1.6 0.00 0.00 0.00 45 1017.8
20260503205130 20 331 1.6 1.6 0.00 0.00 0.00 47 1017.8
20260503204627 20 41 0.0 0.0 0.00 0.00 0.00 45 1018.0
20260503204119 20 175 3.2 3.2 0.00 0.00 0.00 45 1017.9
20260503203616 20 210 3.2 4.8 0.00 0.00 0.00 46 1018.0
20260503203113 20 311 3.2 4.8 0.00 0.00 0.00 46 1018.2
20260503202611 20 256 1.6 3.2 0.00 0.00 0.00 46 1018.3
20260503202109 20 251 3.2 3.2 0.00 0.00 0.00 47 1018.4
20260503201607 20 209 3.2 3.2 0.00 0.00 0.00 47 1018.5
20260503201104 20 160 1.6 3.2 0.00 0.00 0.00 47 1018.7
20260503200600 20 295 3.2 4.8 0.00 0.00 0.00 46 1018.7
20260503200056 19 347 0.0 1.6 0.00 0.00 0.00 47 1018.8
20260503195554 20 125 3.2 3.2 0.00 0.00 0.00 46 1018.9
20260503195050 20 136 1.6 3.2 0.00 0.00 0.00 46 1018.9
20260503194547 20 228 3.2 4.8 0.00 0.00 0.00 44 1018.9
20260503194047 20 340 1.6 3.2 0.00 0.00 0.00 45 1019.1
20260503193544 20 257 3.2 6.4 0.00 0.00 0.00 44 1019.3
20260503193039 20 333 3.2 3.2 0.00 0.00 0.00 45 1019.3
20260503192535 20 299 1.6 1.6 0.00 0.00 0.00 44 1019.4